496P/Hill (2025)

Japanese version
Home page
Updated on January 10, 2025

---------------------------------------------------------------------

* Profile

Designation 496P/2024 S3
Recovery Date September 26 and October 7, 2024
Magnitude 20.2 mag, 20.2 mag
Recoverer Pan-STARRS 2 telescope (Haleakala), Pan-STARRS 1 telescope (Haleakala)

* Pictures

* Orbital Elements

Epoch 2024 Oct. 17.0 TT = JDT 2460600.5                                         
T 2025 Mar. 10.30924 TT                                 Rudenko                 
q   1.6209020            (2000.0)            P               Q                  
n   0.06540308     Peri.   42.26401     -0.25312143     -0.93993709             
a   6.1010408      Node    63.58759     +0.80505938     -0.33592250             
e   0.7343237      Incl.   14.81546     +0.53647827     +0.06061632             
P  15.1                                                                         
From 426 observations 2009 Oct. 14-2024 Oct. 22, mean residual 0".7.            

* Finding Charts

* Magnitudes Graph

        m1 = 10.0 + 5 log d + 20.0 log r(t - 30)

---------------------------------------------------------------------

The orbital elements are published on M.P.E.C. 2024-U42.
The charts are made with StellaNavigator Ver.11 (AstroArts).
The magnitudes graphs are made with Comet for Windows.

---------------------------------------------------------------------

Copyright(C) Seiichi Yoshida (comet@aerith.net). All rights reserved.